Change the Weather History Date:

Sunday, May 27, 2012

  Actual Average Record
Temperature  
Mean Temperature 57 °F 60 °F  
Max Temperature 61 °F 68 °F 89 °F (1984)
Min Temperature 52 °F 52 °F 44 °F (1953)
Degree Days  
Heating Degree Days 8 5  
Month to date heating degree days 170 162  
Since 1 July heating degree days 2752 2748  
Cooling Degree Days 0 0  
Month to date cooling degree days 0 0  
Year to date cooling degree days 6 6  
Growing Degree Days 6 (Base 50)    
Moisture  
Dew Point 48 °F    
Average Humidity 75    
Maximum Humidity 89    
Minimum Humidity 60    
Precipitation  
Precipitation 0.00 in 0.01 in 0.53 in (2010)
Month to date precipitation 0.01 0.62  
Year to date precipitation 11.85 12.98  
Since 1 July precipitation 14.92 20.57  
Sea Level Pressure  
Sea Level Pressure 30.14 in    
Wind  
Wind Speed 11 mph (West)    
Max Wind Speed 17 mph    
Max Gust Speed 29 mph    
Visibility 10 miles    
Events      
T = Trace of Precipitation, MM = Missing Value Source: NWS Daily Summary

Daily Weather History Graph

Daily Weather History Graph

Search for Another Location

Airport or City:

Trip Planner

Search our weather history database for the weather conditions in past years. The results will help you decide how hot, cold, wet, or windy it might be!

Date:

Astronomy

May. 27, 2012 Rise Set
Actual Time 5:50 AM PDT 8:21 PM PDT
Civil Twilight 5:20 AM PDT 8:52 PM PDT
Nautical Twilight 4:42 AM PDT 9:30 PM PDT
Astronomical Twilight 4:01 AM PDT 10:12 PM PDT
Moon 11:57 AM PDT 12:35 AM PDT
Length of Visible Light 15h 32m
Length of Day
14h 31m
Waxing Crescent, 39% of the Moon is Illuminated
May 27
Waxing Crescent
May 28
First Quarter
Jun 4
Full
Jun 11
Last Quarter
Jun 19
New

Hourly Weather History & Observations

Time (PDT) Temp. Dew Point Humidity Pressure Visibility Wind Dir Wind Speed Gust Speed Precip Events Conditions
12:29 AM 53.6 °F 48.2 °F 82% 30.11 in 10.0 mi WSW 12.7 mph - N/A   Overcast
12:53 AM 53.6 °F 48.2 °F 82% 30.12 in 10.0 mi WSW 13.8 mph - N/A   Overcast
1:53 AM 53.1 °F 48.0 °F 83% 30.12 in 10.0 mi West 15.0 mph - N/A   Overcast
2:53 AM 52.0 °F 48.0 °F 86% 30.12 in 10.0 mi West 11.5 mph - N/A   Overcast
3:53 AM 53.1 °F 48.0 °F 83% 30.12 in 10.0 mi West 11.5 mph - N/A   Overcast
4:10 AM 53.6 °F 48.2 °F 82% 30.12 in 10.0 mi West 15.0 mph - N/A   Overcast
4:53 AM 52.0 °F 48.0 °F 86% 30.12 in 10.0 mi West 12.7 mph - N/A   Overcast
5:28 AM 51.8 °F 48.2 °F 88% 30.12 in 10.0 mi SSW 12.7 mph - N/A   Overcast
5:53 AM 52.0 °F 46.9 °F 83% 30.13 in 10.0 mi West 9.2 mph - N/A   Overcast
6:53 AM 52.0 °F 48.0 °F 86% 30.14 in 10.0 mi West 9.2 mph - N/A   Overcast
7:53 AM 53.1 °F 48.0 °F 83% 30.16 in 10.0 mi West 9.2 mph - N/A   Overcast
8:53 AM 53.1 °F 48.0 °F 83% 30.17 in 10.0 mi West 9.2 mph - N/A   Overcast
9:53 AM 53.1 °F 46.9 °F 80% 30.17 in 10.0 mi WSW 8.1 mph - N/A   Overcast
10:53 AM 54.0 °F 46.9 °F 77% 30.18 in 10.0 mi WSW 9.2 mph - N/A   Overcast
11:53 AM 55.0 °F 48.0 °F 77% 30.19 in 10.0 mi SW 6.9 mph - N/A   Overcast
12:27 PM 55.4 °F 48.2 °F 77% 30.19 in 10.0 mi WSW 10.4 mph - N/A   Overcast
12:53 PM 55.9 °F 48.0 °F 75% 30.18 in 10.0 mi West 12.7 mph - N/A   Overcast
1:53 PM 57.0 °F 48.0 °F 72% 30.17 in 10.0 mi West 9.2 mph - N/A   Mostly Cloudy
2:35 PM 59.0 °F 48.2 °F 67% 30.16 in 10.0 mi WSW 8.1 mph - N/A   Scattered Clouds
2:53 PM 60.1 °F 48.0 °F 64% 30.15 in 10.0 mi West 12.7 mph - N/A   Scattered Clouds
3:53 PM 60.1 °F 48.0 °F 64% 30.14 in 10.0 mi West 16.1 mph - N/A   Partly Cloudy
4:53 PM 61.0 °F 46.9 °F 60% 30.13 in 10.0 mi West 13.8 mph - N/A   Partly Cloudy
5:53 PM 59.0 °F 46.9 °F 64% 30.12 in 10.0 mi West 15.0 mph - N/A   Partly Cloudy
6:53 PM 57.0 °F 48.0 °F 72% 30.12 in 10.0 mi West 11.5 mph - N/A   Partly Cloudy
7:53 PM 55.9 °F 48.0 °F 75% 30.11 in 10.0 mi West 16.1 mph - N/A   Partly Cloudy
8:53 PM 54.0 °F 48.0 °F 80% 30.11 in 10.0 mi West 5.8 mph - N/A   Partly Cloudy
9:53 PM 54.0 °F 48.9 °F 83% 30.12 in 10.0 mi West 6.9 mph - N/A   Partly Cloudy
10:53 PM 53.1 °F 48.9 °F 86% 30.12 in 10.0 mi West 10.4 mph - N/A   Partly Cloudy
11:20 PM 53.6 °F 50.0 °F 88% 30.11 in 10.0 mi West 9.2 mph - N/A   Overcast
11:53 PM 53.1 °F 50.0 °F 89% 30.11 in 10.0 mi West 11.5 mph - N/A   Overcast